Regional Weather Roundup
Issued by NWS Newport/Morehead, NC

Current Version | Previous Version | Text Only | Print | Product List | Glossary On
Versions: 1 2 3 4 5 6 7 8 9 10 11 12 13 14 15 16 17 18 19 20 21 22 23 24 25 26 27 28 29 30 31 32 33 34 35 36 37 38 39 40 41 42 43 44 45 46 47 48 49 50
000
ASUS42 KMHX 280527
RWRMHX
WEATHER ROUNDUP FOR EASTERN NORTH CAROLINA
NATIONAL WEATHER SERVICE NEWPORT/MOREHEAD CITY NC
100 AM EDT SAT MAR 28 2015

NOTE: "FAIR" INDICATES FEW OR NO CLOUDS BELOW 12,000 FEET
WITH NO SIGNIFICANT WEATHER AND/OR OBSTRUCTIONS TO VISIBILITY

NCZ015>017-031-032-045>047-102-103-280600-
NORTH COAST

CITY           SKY/WX    TMP DP  RH WIND       PRES   REMARKS
EDENTON        CLOUDY    40  38  90 N9        29.79S
ELIZABETH CITY CLOUDY    41  37  86 N13       29.77F
KITTY HAWK     DRIZZLE   39  38  95 N10G18    29.74F
MANTEO         CLOUDY    39  37  92 N16G29    29.74F

$$

NCZ045>047-081-094-103-104-280600-
CENTRAL COAST

CITY           SKY/WX    TMP DP  RH WIND       PRES   REMARKS
FRISCO         CLOUDY    42  38  85 N13G30    29.74R
SWANQUARTER      N/A     41 N/A N/A N2G14     29.74S

$$

NCZ095-097-098-100-101-280600-
SOUTHERN COAST

CITY           SKY/WX    TMP DP  RH WIND       PRES   REMARKS
BEAUFORT       CLOUDY    43  39  86 N14       29.77R
CEDAR ISLAND     N/A     45 N/A N/A NW20G26   29.79S
JACKSONVILLE   MOCLDY    43  39  86 NW9       29.81R
PINEY ISLAND   CLOUDY   N/A N/A N/A N16G22    29.76S
WILMINGTON     MOCLDY    44  39  82 N8        29.81R


$$

NCZ011>013-027>030-043-044-078>080-089-090>093-098-280600-
COASTAL PLAIN

CITY           SKY/WX    TMP DP  RH WIND       PRES   REMARKS
AHOSKIE        MOCLDY    38  37  95 CALM      29.82R
CLINTON        MOCLDY    42  40  96 W3        29.85R
ELIZABETHTOWN  CLOUDY    43  41  93 CALM      29.85R
GOLDSBORO      FAIR      41  40  99 NW6       29.81R
GREENVILLE     PTCLDY    39  37  93 NW5       29.84R
HAVELOCK       CLOUDY    44  40  85 N12       29.78F
KENANSVILLE    PTCLDY    41  38  91 N3        29.83R
KINSTON        PTCLDY    40  38  91 NW3       29.82S
NEW BERN       CLOUDY    43  39  86 N13       29.80S
RICHLANDS      CLOUDY    41  36  81 NW5       29.83R
ROCKY MOUNT    MOCLDY    39  36  89 NW3       29.83S
WASHINGTON     CLOUDY    40  38  93 NW6       29.81R
WHITEVILLE     CLOUDY    44  41  88 CALM      29.85S

$$

AMZ130-135-150-152-154-156-158-170-250-252-270-ANZ085-086-088-633-658-670-280600-
MARINE OBSERVATIONS

STATION/POSITION TIME  TEMP    WIND        PRES    WAVE   SWELL
                       AIR SEA DIR/SP/G            HT/PER HT/PER
                 (UTC) (F)     (DEG/KT/KT) (MB)    (FT/S) (FT/S)
CHESAPEAKE LIGHT 0500   40      10/ 15/ 16 1008.4
64 E VA BEACH    0450   44 57  360/ 27/ 33 1004.8   10/ 7   2/16
DUCK             0500   38 41   10/ 19/ 22 1006.1
2 E DUCK         0511      41                N/A     6/ 7   2/12
10 NE DUCK       NOT AVBL
OREGON INLET     0500   39 45  350/ 17/ 22 1006.8
HATTERAS CG      0412          360/ 25/ 30   N/A
CAPE LOOKOUT     0500   44     360/ 14/ 17 1007.0
BEAUFORT LAB     0412          360/ 13/ 19   N/A
27 SE WRIGHTSVLE 0500   46 64   10/ 16/ 19 1009.3
5 SE WRIGHTSVLE  0500   46 56  330/ 14/ 16 1008.6
225 S CAPE HAT   0450   70 69  230/ 23/ 29 1004.7   11/ 8
41 SE CHARLESTON 0450   54 68  340/ 16/ 19 1010.2    5/ 6   2/ 8

$$


USA.gov is the U.S. government's official web portal to all federal, state and local government web resources and services.